KC8OLT Weather Reports


time (UTC)temp
C
wind
direction
speed
KPH
gust
KPH
rain 1hr
cm
rain 24hr
cm
rain mn
cm
humidity
%
barometer
mb
20260906173445 23 326 4.8 9.7 0.00 0.00 0.00 78 1024.0
20260906172944 23 306 4.8 4.8 0.00 0.00 0.00 79 1024.0
20260906172444 23 343 3.2 4.8 0.00 0.00 0.00 81 1024.0
20260906171945 22 283 1.6 3.2 0.00 0.00 0.00 84 1024.0
20260906171445 22 317 1.6 3.2 0.00 0.00 0.00 83 1024.0
20260906170945 22 202 0.0 0.0 0.00 0.00 0.00 84 1024.0
20260906170444 22 346 4.8 4.8 0.00 0.00 0.00 81 1024.0
20260906165944 22 341 3.2 4.8 0.00 0.00 0.00 82 1024.0
20260906165445 22 350 6.4 6.4 0.00 0.00 0.00 82 1024.0
20260906164944 22 43 3.2 3.2 0.00 0.00 0.00 84 1024.0
20260906164444 21 360 3.2 6.4 0.00 0.00 0.00 85 1024.0
20260906163944 21 305 4.8 4.8 0.00 0.00 0.00 85 1024.0
20260906163450 22 338 4.8 4.8 0.00 0.00 0.00 85 1024.0
20260906162945 22 346 4.8 6.4 0.00 0.00 0.00 84 1024.0
20260906162444 21 351 4.8 4.8 0.00 0.00 0.00 85 1024.0
20260906161944 21 328 3.2 3.2 0.00 0.00 0.00 86 1024.0
20260906161445 21 338 3.2 4.8 0.00 0.00 0.00 86 1024.0
20260906160945 21 340 0.0 0.0 0.00 0.00 0.00 87 1024.0
20260906160444 21 323 0.0 0.0 0.00 0.00 0.00 88 1024.0
20260906155944 21 338 0.0 0.0 0.00 0.00 0.00 89 1024.0
20260906155444 21 346 0.0 0.0 0.00 0.00 0.00 87 1024.0
20260906154944 21 2 0.0 0.0 0.00 0.00 0.00 88 1024.0
20260906154444 20 331 0.0 0.0 0.00 0.00 0.00 87 1024.0
20260906153944 21 317 0.0 0.0 0.00 0.00 0.00 88 1024.0
20260906153444 20 339 0.0 0.0 0.00 0.00 0.00 88 1024.0
20260906152944 20 353 0.0 0.0 0.00 0.00 0.00 87 1024.0
20260906152445 21 324 0.0 0.0 0.00 0.00 0.00 86 1024.0
20260906151944 20 344 0.0 0.0 0.00 0.00 0.00 89 1024.0
20260906151444 20 306 0.0 0.0 0.00 0.00 0.00 90 1024.0
20260906150945 20 321 0.0 0.0 0.00 0.00 0.00 91 1024.0
20260906150444 19 323 0.0 0.0 0.00 0.00 0.00 91 1024.0
20260906145945 18 322 0.0 0.0 0.00 0.00 0.00 91 1024.0
20260906145444 18 312 0.0 0.0 0.00 0.00 0.00 90 1024.0
20260906144945 18 300 0.0 0.0 0.00 0.00 0.00 88 1024.0
20260906144444 18 345 0.0 0.0 0.00 0.00 0.00 88 1024.0
20260906143944 18 328 0.0 0.0 0.00 0.00 0.00 85 1024.0
20260906143444 19 352 0.0 0.0 0.00 0.00 0.00 86 1024.0
20260906142944 19 332 0.0 0.0 0.00 0.00 0.00 89 1024.0
20260906142444 19 253 0.0 0.0 0.00 0.00 0.00 94 1024.0
20260906141944 19 320 0.0 0.0 0.00 0.00 0.00 96 1024.0
20260906141444 19 263 0.0 0.0 0.00 0.00 0.00 97 1024.0
20260906140945 19 196 0.0 0.0 0.00 0.00 0.00 98 1024.0
20260906140445 18 226 0.0 0.0 0.00 0.00 0.00 99 1024.0
20260906135945 18 261 0.0 0.0 0.00 0.00 0.00 100 1024.0
20260906135444 18 183 0.0 0.0 0.00 0.00 0.00 100 1024.0
20260906134944 17 139 0.0 0.0 0.00 0.00 0.00 100 1024.0
20260906134444 17 139 0.0 0.0 0.00 0.00 0.00 100 1024.0
20260906133944 17 133 0.0 0.0 0.00 0.00 0.00 100 1024.0
20260906133444 17 156 0.0 0.0 0.00 0.00 0.00 100 1024.0
20260906132944 17 204 0.0 0.0 0.00 0.00 0.00 100 1024.0
20260906132444 16 204 0.0 0.0 0.00 0.00 0.00 100 1024.0
20260906131944 16 204 0.0 0.0 0.00 0.00 0.00 100 1024.0
20260906131444 16 148 0.0 0.0 0.00 0.00 0.00 100 1024.0
20260906130945 16 157 0.0 0.0 0.00 0.00 0.00 100 1024.0
20260906130445 16 204 0.0 0.0 0.00 0.00 0.00 100 1024.0
20260906125945 16 181 0.0 0.0 0.00 0.00 0.00 100 1024.0
20260906125445 16 187 0.0 0.0 0.00 0.00 0.00 100 1024.0
20260906124944 16 193 0.0 0.0 0.00 0.00 0.00 100 1024.0
20260906124500 16 227 0.0 0.0 0.00 0.00 0.00 100 1024.0
20260906123944 16 193 0.0 0.0 0.00 0.00 0.00 100 1024.0
20260906123444 16 195 0.0 0.0 0.00 0.00 0.00 100 1024.0
20260906122945 16 191 0.0 0.0 0.00 0.00 0.00 100 1024.0
20260906122444 15 194 0.0 0.0 0.00 0.00 0.00 100 1023.0
20260906121944 15 153 0.0 0.0 0.00 0.00 0.00 100 1023.0
20260906121444 15 179 0.0 0.0 0.00 0.00 0.00 100 1023.0
20260906120944 15 176 0.0 0.0 0.00 0.00 0.00 100 1023.0
20260906120444 15 194 0.0 0.0 0.00 0.00 0.00 100 1023.0
20260906115944 15 171 0.0 0.0 0.00 0.00 0.00 100 1023.0
20260906115444 15 153 0.0 0.0 0.00 0.00 0.00 100 1023.0
20260906114944 15 166 0.0 0.0 0.00 0.00 0.00 100 1023.0
20260906114444 15 153 0.0 0.0 0.00 0.00 0.00 100 1023.0
20260906113944 15 175 0.0 0.0 0.00 0.00 0.00 100 1023.0
20260906113445 15 152 0.0 0.0 0.00 0.00 0.00 100 1023.0
20260906112944 15 175 0.0 0.0 0.00 0.00 0.00 100 1023.0
20260906112444 15 148 0.0 0.0 0.00 0.00 0.00 100 1023.0
20260906111945 15 150 0.0 0.0 0.00 0.00 0.00 100 1023.0
20260906111444 15 158 0.0 0.0 0.00 0.00 0.00 100 1023.0
20260906110944 15 159 0.0 0.0 0.00 0.00 0.00 100 1023.0
20260906110444 15 158 0.0 0.0 0.00 0.00 0.00 100 1023.0
20260906105944 15 159 0.0 0.0 0.00 0.00 0.00 100 1023.0
20260906105445 15 179 0.0 0.0 0.00 0.00 0.00 100 1023.0
20260906104944 15 155 0.0 0.0 0.00 0.00 0.00 100 1023.0
20260906104444 15 172 0.0 0.0 0.00 0.00 0.00 100 1023.0
20260906103944 15 151 0.0 0.0 0.00 0.00 0.00 100 1023.0
20260906103444 15 157 0.0 0.0 0.00 0.00 0.00 100 1023.0
20260906102944 15 153 0.0 0.0 0.00 0.00 0.00 100 1023.0
20260906102444 15 161 0.0 0.0 0.00 0.00 0.00 100 1023.0
20260906101944 15 174 0.0 0.0 0.00 0.00 0.00 100 1023.0
20260906101445 15 143 0.0 0.0 0.00 0.00 0.00 100 1023.0
20260906100944 15 155 0.0 0.0 0.00 0.00 0.00 100 1023.0
20260906100444 15 156 0.0 0.0 0.00 0.00 0.00 100 1023.0
20260906095944 15 156 0.0 0.0 0.00 0.00 0.00 100 1023.0
20260906095444 15 160 0.0 0.0 0.00 0.00 0.00 100 1023.0
20260906094945 15 163 0.0 0.0 0.00 0.00 0.00 100 1023.0
20260906094444 15 179 0.0 0.0 0.00 0.00 0.00 100 1023.0
20260906093944 15 146 0.0 0.0 0.00 0.00 0.00 100 1023.0
20260906093444 15 151 0.0 0.0 0.00 0.00 0.00 100 1022.0
20260906092944 15 152 0.0 0.0 0.00 0.00 0.00 100 1022.0
20260906092444 15 149 0.0 0.0 0.00 0.00 0.00 100 1023.0
20260906091944 15 148 0.0 0.0 0.00 0.00 0.00 100 1022.0
20260906091444 15 162 0.0 0.0 0.00 0.00 0.00 100 1022.0
20260906090945 15 145 0.0 0.0 0.00 0.00 0.00 100 1022.0
20260906090444 15 150 0.0 0.0 0.00 0.00 0.00 100 1022.0
20260906085943 15 140 0.0 0.0 0.00 0.00 0.00 100 1022.0
20260906085444 15 139 0.0 0.0 0.00 0.00 0.00 100 1023.0
20260906084945 15 138 0.0 0.0 0.00 0.00 0.00 100 1022.0
20260906084444 15 148 0.0 0.0 0.00 0.00 0.00 100 1022.0
20260906083944 15 126 0.0 0.0 0.00 0.00 0.00 100 1023.0
20260906083444 15 224 0.0 0.0 0.00 0.00 0.00 100 1023.0
20260906082944 15 238 0.0 0.0 0.00 0.00 0.00 100 1023.0
20260906082444 15 337 0.0 0.0 0.00 0.00 0.00 100 1022.0
20260906081945 15 203 0.0 0.0 0.00 0.00 0.00 100 1022.0
20260906081444 15 221 0.0 0.0 0.00 0.00 0.00 100 1022.0
20260906080944 15 146 0.0 0.0 0.00 0.00 0.00 100 1022.0
20260906080444 15 203 0.0 0.0 0.00 0.00 0.00 99 1022.0
20260906075944 15 107 0.0 0.0 0.00 0.00 0.00 99 1022.0
20260906075444 15 153 0.0 0.0 0.00 0.00 0.00 99 1022.0
20260906074944 16 201 0.0 0.0 0.00 0.00 0.00 99 1022.0
20260906074444 16 273 0.0 0.0 0.00 0.00 0.00 99 1022.0
20260906073944 16 120 0.0 0.0 0.00 0.00 0.00 99 1022.0
20260906073445 16 132 0.0 0.0 0.00 0.00 0.00 99 1022.0
20260906072944 16 150 0.0 0.0 0.00 0.00 0.00 99 1023.0
20260906072444 16 137 0.0 0.0 0.00 0.00 0.00 99 1023.0
20260906071944 16 125 0.0 0.0 0.00 0.00 0.00 99 1023.0
20260906071444 16 121 0.0 0.0 0.00 0.00 0.00 100 1023.0
20260906070944 16 127 0.0 0.0 0.00 0.00 0.00 100 1023.0
20260906070445 16 131 0.0 0.0 0.00 0.00 0.00 100 1023.0
20260906065944 15 211 0.0 0.0 0.00 0.00 0.00 100 1023.0
20260906065444 16 154 0.0 0.0 0.00 0.00 0.00 100 1023.0
20260906064944 15 147 0.0 0.0 0.00 0.00 0.00 100 1023.0
20260906064444 15 140 0.0 0.0 0.00 0.00 0.00 100 1023.0
20260906063944 15 150 0.0 0.0 0.00 0.00 0.00 100 1023.0
20260906063444 15 122 0.0 0.0 0.00 0.00 0.00 100 1023.0
20260906062944 15 134 0.0 0.0 0.00 0.00 0.00 100 1023.0
20260906062444 15 180 0.0 0.0 0.00 0.00 0.00 100 1023.0
20260906061944 15 200 0.0 0.0 0.00 0.00 0.00 100 1023.0
20260906061445 15 142 0.0 0.0 0.00 0.00 0.00 100 1023.0
20260906060945 15 134 0.0 0.0 0.00 0.00 0.00 100 1023.0
20260906060444 15 154 0.0 0.0 0.00 0.00 0.00 100 1023.0
20260906055945 15 176 0.0 0.0 0.00 0.00 0.00 100 1023.0
20260906055444 15 156 0.0 0.0 0.00 0.00 0.00 100 1023.0
20260906054944 15 186 0.0 0.0 0.00 0.00 0.00 100 1023.0
20260906054445 15 179 0.0 0.0 0.00 0.00 0.00 100 1023.0
20260906053944 15 179 0.0 0.0 0.00 0.00 0.00 100 1022.0
20260906053444 15 174 0.0 0.0 0.00 0.00 0.00 100 1023.0
20260906052944 15 204 0.0 0.0 0.00 0.00 0.00 100 1022.0
20260906052444 15 147 0.0 0.0 0.00 0.00 0.00 100 1022.0
20260906051944 15 162 0.0 0.0 0.00 0.00 0.00 100 1022.0
20260906051445 15 170 0.0 0.0 0.00 0.00 0.00 100 1022.0
20260906050949 15 156 0.0 0.0 0.00 0.00 0.00 100 1022.0
20260906050444 15 169 0.0 0.0 0.00 0.00 0.00 100 1022.0
20260906045944 15 153 0.0 0.0 0.00 0.00 0.00 100 1022.0
20260906045444 15 212 0.0 0.0 0.00 0.00 0.00 100 1022.0
20260906044944 15 154 0.0 0.0 0.00 0.00 0.00 100 1022.0
20260906044444 15 145 0.0 0.0 0.00 0.00 0.00 100 1022.0
20260906043944 15 160 0.0 0.0 0.00 0.00 0.00 100 1022.0
20260906043444 15 146 0.0 0.0 0.00 0.00 0.00 100 1022.0
20260906042944 15 140 0.0 0.0 0.00 0.00 0.00 100 1022.0
20260906042444 15 154 0.0 0.0 0.00 0.00 0.00 100 1022.0
20260906041944 15 137 0.0 0.0 0.00 0.00 0.00 100 1022.0
20260906041444 15 172 0.0 0.0 0.00 0.00 0.00 100 1022.0
20260906040944 15 133 0.0 0.0 0.00 0.00 0.00 100 1022.0
20260906040444 15 157 0.0 0.0 0.00 0.00 0.00 100 1022.0
20260906035944 15 154 0.0 0.0 0.00 0.00 0.00 100 1022.0
20260906035445 15 198 0.0 0.0 0.00 0.00 0.00 100 1022.0
20260906034944 15 153 0.0 0.0 0.00 0.00 0.00 100 1022.0
20260906034444 15 149 0.0 0.0 0.00 0.00 0.00 100 1022.0
20260906033945 15 221 0.0 0.0 0.00 0.00 0.00 100 1022.0
20260906033444 15 160 0.0 0.0 0.00 0.00 0.00 100 1022.0
20260906032944 15 201 0.0 0.0 0.00 0.00 0.00 100 1022.0
20260906032444 15 137 0.0 0.0 0.00 0.00 0.00 99 1022.0
20260906031944 15 161 0.0 0.0 0.00 0.00 0.00 99 1022.0
20260906031444 15 156 0.0 0.0 0.00 0.00 0.00 99 1022.0
20260906030944 15 201 0.0 0.0 0.00 0.00 0.00 99 1022.0
20260906030444 15 199 0.0 0.0 0.00 0.00 0.00 99 1022.0
20260906025944 15 202 0.0 0.0 0.00 0.00 0.00 99 1022.0
20260906025444 15 182 0.0 0.0 0.00 0.00 0.00 99 1022.0
20260906024944 15 188 0.0 0.0 0.00 0.00 0.00 99 1022.0
20260906024444 15 206 0.0 0.0 0.00 0.00 0.00 99 1022.0
20260906023944 15 167 0.0 0.0 0.00 0.00 0.00 99 1022.0
20260906023444 15 156 0.0 0.0 0.00 0.00 0.00 99 1022.0
20260906022944 16 152 0.0 0.0 0.00 0.00 0.00 99 1022.0
20260906022444 16 196 0.0 0.0 0.00 0.00 0.00 99 1022.0
20260906021944 16 214 0.0 0.0 0.00 0.00 0.00 99 1022.0
20260906021444 16 187 0.0 0.0 0.00 0.00 0.00 98 1022.0
20260906020944 16 212 0.0 0.0 0.00 0.00 0.00 98 1022.0
20260906020444 16 210 0.0 0.0 0.00 0.00 0.00 98 1021.0
20260906015945 16 192 0.0 0.0 0.00 0.00 0.00 98 1021.0
20260906015444 16 195 0.0 0.0 0.00 0.00 0.00 98 1021.0
20260906014945 16 187 0.0 0.0 0.00 0.00 0.00 98 1021.0
20260906014445 16 218 0.0 0.0 0.00 0.00 0.00 97 1021.0
20260906013944 16 160 0.0 0.0 0.00 0.00 0.00 97 1021.0
20260906013444 16 150 0.0 0.0 0.00 0.00 0.00 97 1021.0
20260906012944 16 164 0.0 0.0 0.00 0.00 0.00 97 1021.0
20260906012444 16 189 0.0 0.0 0.00 0.00 0.00 96 1021.0
20260906011945 17 210 0.0 0.0 0.00 0.00 0.00 96 1021.0
20260906011445 17 210 0.0 0.0 0.00 0.00 0.00 96 1021.0
20260906010945 17 231 0.0 0.0 0.00 0.00 0.00 96 1021.0
20260906010444 17 234 0.0 0.0 0.00 0.00 0.00 95 1021.0
20260906005944 17 232 0.0 0.0 0.00 0.00 0.00 95 1021.0
20260906005444 17 260 0.0 0.0 0.00 0.00 0.00 95 1021.0
20260906004944 17 224 0.0 0.0 0.00 0.00 0.00 94 1021.0
20260906004446 17 234 0.0 0.0 0.00 0.00 0.00 94 1021.0
20260906003944 17 218 0.0 0.0 0.00 0.00 0.00 93 1021.0
20260906003445 18 245 0.0 0.0 0.00 0.00 0.00 92 1021.0
20260906002944 18 271 0.0 0.0 0.00 0.00 0.00 92 1021.0
20260906002444 18 277 0.0 0.0 0.00 0.00 0.00 91 1021.0
20260906001944 18 343 0.0 0.0 0.00 0.00 0.00 90 1021.0
20260906001444 18 13 0.0 3.2 0.00 0.00 0.00 90 1021.0
20260906000944 18 356 0.0 4.8 0.00 0.00 0.00 90 1021.0
20260906000444 18 329 3.2 4.8 0.00 0.00 0.00 90 1021.0
20260905235945 19 59 0.0 3.2 0.00 0.00 0.00 90 1021.0
20260905235444 19 328 0.0 3.2 0.00 0.00 0.00 89 1021.0
20260905234944 19 238 0.0 0.0 0.00 0.00 0.00 89 1021.0
20260905234444 19 18 1.6 4.8 0.00 0.00 0.00 89 1021.0
20260905233944 19 359 4.8 4.8 0.00 0.00 0.00 89 1022.0
20260905233444 19 88 0.0 4.8 0.00 0.00 0.00 88 1022.0
20260905232944 19 296 0.0 0.0 0.00 0.00 0.00 88 1022.0
20260905232445 19 295 0.0 3.2 0.00 0.00 0.00 88 1022.0
20260905231944 20 295 1.6 3.2 0.00 0.00 0.00 87 1022.0
20260905231444 20 19 1.6 4.8 0.00 0.00 0.00 86 1022.0
20260905230944 20 289 1.6 4.8 0.00 0.00 0.00 86 1022.0
20260905230444 20 18 4.8 4.8 0.00 0.00 0.00 86 1022.0
20260905225944 20 312 3.2 4.8 0.00 0.00 0.00 86 1022.0
20260905225444 20 290 0.0 4.8 0.00 0.00 0.00 85 1022.0
20260905224944 20 354 3.2 4.8 0.00 0.00 0.00 85 1022.0
20260905224444 20 304 1.6 3.2 0.00 0.00 0.00 84 1022.0
20260905223945 20 315 3.2 3.2 0.00 0.00 0.00 84 1022.0
20260905223445 20 320 3.2 3.2 0.00 0.00 0.00 86 1022.0
20260905222945 20 315 3.2 4.8 0.00 0.00 0.00 86 1022.0
20260905222444 20 337 4.8 4.8 0.00 0.00 0.00 84 1022.0
20260905221944 21 89 4.8 6.4 0.00 0.00 0.00 82 1022.0
20260905221444 21 110 3.2 8.0 0.00 0.00 0.00 80 1021.0
20260905220944 21 329 4.8 9.7 0.00 0.00 0.00 81 1022.0
20260905220444 21 55 8.0 9.7 0.00 0.00 0.00 81 1022.0
20260905215944 22 13 4.8 4.8 0.00 0.00 0.00 79 1022.0
20260905215444 22 318 6.4 6.4 0.00 0.00 0.00 79 1022.0
20260905214944 22 352 6.4 6.4 0.00 0.00 0.00 79 1022.0
20260905214444 22 327 3.2 6.4 0.00 0.00 0.00 78 1022.0
20260905213945 22 229 1.6 6.4 0.00 0.00 0.00 80 1021.0
20260905213444 22 352 4.8 6.4 0.00 0.00 0.00 80 1022.0
20260905212944 22 319 4.8 4.8 0.00 0.00 0.00 79 1022.0
20260905212444 22 254 3.2 8.0 0.00 0.00 0.00 79 1022.0
20260905211944 22 342 4.8 8.0 0.00 0.00 0.00 79 1022.0
20260905211444 22 303 6.4 14.5 0.00 0.00 0.00 78 1022.0
20260905210944 22 341 3.2 4.8 0.00 0.00 0.00 79 1022.0
20260905210444 22 79 4.8 6.4 0.00 0.00 0.00 80 1021.0
20260905205945 22 235 1.6 14.5 0.00 0.00 0.00 79 1022.0
20260905205444 22 2 9.7 9.7 0.00 0.00 0.00 80 1022.0
20260905204944 22 320 8.0 8.0 0.00 0.00 0.00 79 1022.0
20260905204444 22 282 4.8 6.4 0.00 0.00 0.00 81 1022.0
20260905203944 22 345 8.0 8.0 0.00 0.00 0.00 81 1022.0
20260905203444 22 348 4.8 9.7 0.00 0.00 0.00 81 1022.0
20260905202944 22 28 4.8 6.4 0.00 0.00 0.00 80 1022.0
20260905202444 22 305 4.8 9.7 0.00 0.00 0.00 82 1022.0
20260905201944 22 295 4.8 4.8 0.00 0.00 0.00 83 1022.0
20260905201444 22 303 4.8 6.4 0.00 0.00 0.00 82 1022.0
20260905200945 22 2 3.2 8.0 0.00 0.00 0.00 84 1022.0
20260905200444 22 310 4.8 4.8 0.00 0.00 0.00 84 1022.0
20260905195944 22 299 4.8 6.4 0.00 0.00 0.00 82 1022.0
20260905195444 22 310 1.6 9.7 0.00 0.00 0.00 83 1022.0
20260905194944 22 27 4.8 8.0 0.00 0.00 0.00 84 1022.0
20260905194444 22 51 4.8 8.0 0.00 0.00 0.00 83 1022.0
20260905193944 22 156 1.6 9.7 0.00 0.00 0.00 82 1022.0
20260905193444 22 340 4.8 4.8 0.00 0.00 0.00 83 1022.0
20260905192945 22 224 4.8 11.3 0.00 0.00 0.00 83 1022.0
20260905192446 22 359 6.4 11.3 0.00 0.00 0.00 83 1022.0
20260905191944 22 42 9.7 14.5 0.00 0.00 0.00 84 1022.0
20260905191444 22 319 6.4 11.3 0.00 0.00 0.00 84 1022.0
20260905190944 21 342 8.0 14.5 0.00 0.00 0.00 85 1022.0
20260905190444 21 95 3.2 9.7 0.00 0.00 0.00 84 1022.0
20260905185945 21 39 4.8 11.3 0.00 0.00 0.00 85 1022.0
20260905185444 21 336 14.5 14.5 0.00 0.00 0.00 85 1022.0
20260905184945 21 18 11.3 12.9 0.00 0.00 0.00 85 1022.0
20260905184444 21 226 6.4 9.7 0.00 0.00 0.00 84 1022.0
20260905183944 21 341 6.4 9.7 0.00 0.00 0.00 84 1022.0
20260905183444 21 312 4.8 8.0 0.00 0.00 0.00 85 1022.0
20260905182944 21 10 4.8 6.4 0.00 0.00 0.00 84 1022.0
20260905182444 21 15 4.8 9.7 0.00 0.00 0.00 85 1022.0
20260905181944 21 349 11.3 11.3 0.00 0.00 0.00 84 1022.0
20260905181445 21 51 3.2 6.4 0.00 0.00 0.00 85 1022.0
20260905180945 21 277 1.6 9.7 0.00 0.00 0.00 83 1022.0
20260905180444 21 15 9.7 11.3 0.00 0.00 0.00 84 1022.0
20260905175944 21 302 6.4 9.7 0.00 0.00 0.00 85 1022.0
20260905175444 21 314 4.8 11.3 0.00 0.00 0.00 85 1022.0
20260905174944 21 251 6.4 8.0 0.00 0.00 0.00 84 1022.0
20260905174444 21 349 8.0 16.1 0.00 0.00 0.00 82 1022.0
20260905173944 22 344 8.0 9.7 0.00 0.00 0.00 83 1022.0